User: anonymous   Login
Location: Trani
(41.2830°N, 16.4170°E)
Time: 02:19:33
(UTC+02:00)
Language:

ISS - Orbit

View from above orbital plane
View from above orbital plane
View from above satellite
View from above satellite

Ground track
Ground track

The orbit data is extracted from the following two-line orbital elements,

1 25544U 98067A   21164.87320986  .00001116  00000-0  28434-4 0  9991
2 25544  51.6440 359.1162 0003484  92.2457 342.9096 15.48981644288086
Epoch (UTC): 13 June 2021 20:57:25
Eccentricity: 0.0003484
inclination: 51.6440°
perigee height: 417 km
apogee height: 422 km
right ascension of ascending node: 359.1162°
argument of perigee: 92.2457°
revolutions per day: 15.48981644
mean anomaly at epoch: 342.9096°
orbit number at epoch: 28808

The dashed part of the orbit path shows where the satellite is in the earth's shadow,  

DLR